(84127) = 2002 RG40

Discovered at Socorro on 2002-09-05 by LINEAR.

Orbit

Orbit type: Main Belt

Note: WebGL enabled browser required.

epoch2024-03-31.0
epoch JD2460400.5
perihelion date2020-09-21.28640
perihelion JD2459113.78640
argument of perihelion (°)297.64616
ascending node (°)147.43182
inclination (°)9.22018
eccentricity0.1657974
perihelion distance (AU)2.1895118
Tisserand w.r.t. Jupiter3.4
ΔV w.r.t. Earth (km/sec)9.7
semimajor axis (AU)2.6246764
mean anomaly (°)298.24426
mean daily motion (°/day)0.23178760
aphelion distance (AU)3.060
period (years)4.25
P-vector [x]0.07963898
P-vector [y]0.96170808
P-vector [z]0.26225025
Q-vector [x]-0.99308523
Q-vector [y]0.05378143
Q-vector [z]0.10435172
absolute magnitude15.58
phase slope0.15
uncertainty0
referenceMPEC 2024-E02
observations used1086
oppositions18
arc length (days)9153
first opposition used1998
last opposition used2023
residual rms (arc-secs)0.64
perturbers coarse indicatorM-v
perturbers precise indicator003Ek
first observation date used1998-09-21.0
last observation date used2023-10-13.0
computer nameMPCLINUX
JD of orbit computation2456406.197026
perihelion JD uncertainty (days)8.6343E-05
argument of perihelion uncertainty (°)4.2426E-05
ascending node uncertainty (°)3.6364E-05
inclination uncertainty (°)5.7378E-06
eccentricity uncertainty 4.5609E-08
perihelion distance uncertainty (AU)1.2265E-07
Minimum Orbit Intersection Distances (in AU)
for orbit epoch: 2460400.5, reference: E2024-E02
Mercury1.88977
Venus1.48172
Earth1.22373
Mars0.64404
Jupiter2.18568
Saturn6.86146
Uranus15.8322
Neptune27.2698

Observations

1113 total observations over interval: 1998 09 21.34919 – 2023 10 13.282049
These data are available for download (format description).

Date (UT) J2000 RA J2000 Dec Magn Location Ref
1998 09 21.34919 00 55 54.29 -04 20 34.7 18.4 R 699 – Lowell Observatory-LONEOS MPS 97760
1998 09 21.38548 00 55 52.75 -04 20 54.2   699 – Lowell Observatory-LONEOS MPS 97760
1998 09 21.41080 00 55 51.53 -04 21 08.5   699 – Lowell Observatory-LONEOS MPS 97760
1998 09 21.94872 00 55 29.77 -04 26 05.2 20.2 V 910 – Caussols-ODAS MPS 97761
1998 09 21.97194 00 55 28.78 -04 26 18.2 20.0 V 910 – Caussols-ODAS MPS 97761
1998 09 21.99599 00 55 27.75 -04 26 31.2 20.2 V 910 – Caussols-ODAS MPS 97761
2000 02 26.29021 11 16 46.20 +08 59 02.0 18.1 R 703 – Catalina Sky Survey MPS 97761
2000 02 26.30182 11 16 45.64 +08 59 09.4 18.8 R 703 – Catalina Sky Survey MPS 97761
2000 02 26.31343 11 16 45.13 +08 59 18.0 18.4 R 703 – Catalina Sky Survey MPS 97761
2000 02 26.32502 11 16 44.52 +08 59 23.8 18.6 R 703 – Catalina Sky Survey MPS 97761
2000 03 12.27976 11 04 40.36 +11 16 53.9 18.9   704 – Lincoln Laboratory ETS, New Mexico MPS 97761
2000 03 12.29262 11 04 39.78 +11 16 59.2 18.5   704 – Lincoln Laboratory ETS, New Mexico MPS 97761
2000 03 12.30537 11 04 38.99 +11 17 06.6 19.4   704 – Lincoln Laboratory ETS, New Mexico MPS 97761
2000 03 12.31823 11 04 38.44 +11 17 12.9 19.0   704 – Lincoln Laboratory ETS, New Mexico MPS 97761
2000 03 12.33114 11 04 37.83 +11 17 19.7 19.2   704 – Lincoln Laboratory ETS, New Mexico MPS 97761
2000 04 03.23210 10 50 51.05 +13 40 09.4 19.0   704 – Lincoln Laboratory ETS, New Mexico MPS 97761
2000 04 03.24652 10 50 50.68 +13 40 13.5 19.0   704 – Lincoln Laboratory ETS, New Mexico MPS 97761
2000 04 03.26162 10 50 50.24 +13 40 18.2 19.2   704 – Lincoln Laboratory ETS, New Mexico MPS 97761
2000 04 03.27602 10 50 49.88 +13 40 21.5 19.5   704 – Lincoln Laboratory ETS, New Mexico MPS 97761
2000 04 03.29040 10 50 49.52 +13 40 26.7 19.5   704 – Lincoln Laboratory ETS, New Mexico MPS 97761
2002 08 29.45574 22 51 00.22 -10 21 24.5 18.4   644 – Palomar Mountain/NEAT MPS 82973
2002 08 29.46612 22 50 59.70 -10 21 30.1 18.4   644 – Palomar Mountain/NEAT MPS 82973
2002 08 29.47659 22 50 59.20 -10 21 35.5 18.5   644 – Palomar Mountain/NEAT MPS 82973
2002 09 05.26430 22 45 31.97 -11 19 11.9 18.9   704 – Lincoln Laboratory ETS, New Mexico MPS 61626
2002 09 05.27963 22 45 31.19 -11 19 19.6 19.0   704 – Lincoln Laboratory ETS, New Mexico MPS 61626
2002 09 05.29389 22 45 30.40 -11 19 27.6 19.4   704 – Lincoln Laboratory ETS, New Mexico MPS 61626
2002 09 05.32456 22 45 28.89 -11 19 42.4 18.7   704 – Lincoln Laboratory ETS, New Mexico MPS 61626
2002 09 06.26215 22 44 43.44 -11 27 33.3 18.7   704 – Lincoln Laboratory ETS, New Mexico MPS 61626
2002 09 06.27684 22 44 42.64 -11 27 39.4 19.1   704 – Lincoln Laboratory ETS, New Mexico MPS 61626
2002 09 06.29100 22 44 41.98 -11 27 47.3 19.4   704 – Lincoln Laboratory ETS, New Mexico MPS 61626
2002 09 06.30586 22 44 41.29 -11 27 55.2 19.4   704 – Lincoln Laboratory ETS, New Mexico MPS 61626
2002 09 12.55484 22 39 41.34 -12 18 36.6 20.5   608 – Haleakala-AMOS MPS 61626
2002 09 12.56614 22 39 40.86 -12 18 42.1 20.0   608 – Haleakala-AMOS MPS 61626
2002 09 12.57645 22 39 40.30 -12 18 46.2 20.0   608 – Haleakala-AMOS MPS 61626
2002 09 13.30104 22 39 06.76 -12 24 27.0 18.6   704 – Lincoln Laboratory ETS, New Mexico MPS 61626
2002 09 13.31558 22 39 06.07 -12 24 33.3 18.8   704 – Lincoln Laboratory ETS, New Mexico MPS 61626
2002 09 13.33100 22 39 05.23 -12 24 39.8 18.9   704 – Lincoln Laboratory ETS, New Mexico MPS 61626
2002 09 15.30817 22 37 34.60 -12 39 47.8 19.0   644 – Palomar Mountain/NEAT MPS 61626
2002 09 15.32924 22 37 33.63 -12 39 57.1 18.8   644 – Palomar Mountain/NEAT MPS 61626
2002 09 15.39762 22 37 30.41 -12 40 27.9 18.7   644 – Palomar Mountain/NEAT MPS 61626
2002 09 16.13704 22 36 57.59 -12 45 59.8 20.7   644 – Palomar Mountain/NEAT MPS 63432
2002 09 16.21708 22 36 53.84 -12 46 35.3 18.9   644 – Palomar Mountain/NEAT MPS 63432
2002 09 16.28478 22 36 50.70 -12 47 05.5 18.7   644 – Palomar Mountain/NEAT MPS 63432
2002 09 30.24275 22 27 55.53 -14 16 03.5 20.2   608 – Haleakala-AMOS MPS 63432
2002 09 30.25306 22 27 55.16 -14 16 06.9 20.7   608 – Haleakala-AMOS MPS 63432
2002 09 30.26389 22 27 54.82 -14 16 09.8 20.8   608 – Haleakala-AMOS MPS 63432
2003 11 01.43274 08 34 06.20 +10 55 46.8 19.3   704 – Lincoln Laboratory ETS, New Mexico MPS 97761
2003 11 01.44475 08 34 07.13 +10 55 43.3 19.9   704 – Lincoln Laboratory ETS, New Mexico MPS 97761
2003 11 01.45676 08 34 07.84 +10 55 40.0 19.6   704 – Lincoln Laboratory ETS, New Mexico MPS 97761
2003 11 01.46862 08 34 08.60 +10 55 36.3 20.0   704 – Lincoln Laboratory ETS, New Mexico MPS 97761
2003 11 30.39255 08 59 30.17 +09 09 59.1 19.2   704 – Lincoln Laboratory ETS, New Mexico MPS 97761
2003 11 30.40549 08 59 30.54 +09 09 57.2 19.6   704 – Lincoln Laboratory ETS, New Mexico MPS 97761
2003 11 30.41868 08 59 30.95 +09 09 55.8 19.3   704 – Lincoln Laboratory ETS, New Mexico MPS 97761
2003 11 30.43146 08 59 31.36 +09 09 53.8 19.4   704 – Lincoln Laboratory ETS, New Mexico MPS 97761
2003 11 30.44442 08 59 31.74 +09 09 52.8 18.9   704 – Lincoln Laboratory ETS, New Mexico MPS 97761
2003 12 22.39500 09 03 55.63 +09 09 28.2 19.1 V 703 – Catalina Sky Survey MPS 97761
2003 12 22.40877 09 03 55.35 +09 09 29.3 15.6 V 703 – Catalina Sky Survey MPS 97761
2003 12 22.42250 09 03 55.31 +09 09 31.7 19.2 V 703 – Catalina Sky Survey MPS 97761
2003 12 22.43627 09 03 55.18 +09 09 34.0 18.5 V 703 – Catalina Sky Survey MPS 97761
2004 01 13.34202 08 53 57.68 +10 49 02.5 18.4 R 699 – Lowell Observatory-LONEOS MPS 97761
2004 01 13.36119 08 53 56.73 +10 49 10.2   699 – Lowell Observatory-LONEOS MPS 97761
2004 01 13.38033 08 53 55.87 +10 49 18.6   699 – Lowell Observatory-LONEOS MPS 97761
2004 01 13.39935 08 53 55.00 +10 49 26.0   699 – Lowell Observatory-LONEOS MPS 97761
2004 01 21.28634 08 47 38.51 +11 47 20.8 18.6   704 – Lincoln Laboratory ETS, New Mexico MPS 97761
2004 01 21.29780 08 47 37.94 +11 47 26.2 18.7   704 – Lincoln Laboratory ETS, New Mexico MPS 97761
2004 01 21.30999 08 47 37.30 +11 47 32.1 18.6   704 – Lincoln Laboratory ETS, New Mexico MPS 97761
2004 01 21.33307 08 47 36.08 +11 47 44.0 18.7   704 – Lincoln Laboratory ETS, New Mexico MPS 97761
2004 01 23.39415 08 45 49.67 +12 04 12.1 18.8   704 – Lincoln Laboratory ETS, New Mexico MPS 97761
2004 01 23.40711 08 45 48.86 +12 04 17.6 19.1   704 – Lincoln Laboratory ETS, New Mexico MPS 97761
2004 01 23.42011 08 45 48.13 +12 04 23.1 19.5   704 – Lincoln Laboratory ETS, New Mexico MPS 97761
2004 01 23.43291 08 45 47.49 +12 04 30.4 18.8   704 – Lincoln Laboratory ETS, New Mexico MPS 97761
2004 01 23.44569 08 45 46.84 +12 04 36.1 19.0   704 – Lincoln Laboratory ETS, New Mexico MPS 97761
2004 01 24.31441 08 45 01.77 +12 11 41.3 18.3   704 – Lincoln Laboratory ETS, New Mexico MPS 97761
2004 01 24.32682 08 45 01.08 +12 11 47.6 18.3   704 – Lincoln Laboratory ETS, New Mexico MPS 97761
2004 01 24.33972 08 45 00.41 +12 11 53.4 18.2   704 – Lincoln Laboratory ETS, New Mexico MPS 97761
2004 01 24.35265 08 44 59.65 +12 12 00.5 18.2   704 – Lincoln Laboratory ETS, New Mexico MPS 97761
2004 01 24.36500 08 44 59.00 +12 12 06.6 18.2   704 – Lincoln Laboratory ETS, New Mexico MPS 97761
2004 01 29.27264 08 40 39.31 +12 53 11.9 18.0   704 – Lincoln Laboratory ETS, New Mexico MPS 97761
2004 01 29.28514 08 40 38.59 +12 53 18.3 18.2   704 – Lincoln Laboratory ETS, New Mexico MPS 97761
2004 01 29.29785 08 40 37.88 +12 53 25.0 18.2   704 – Lincoln Laboratory ETS, New Mexico MPS 97761
2004 01 29.31034 08 40 37.19 +12 53 31.7 18.5   704 – Lincoln Laboratory ETS, New Mexico MPS 97761
2004 01 29.32279 08 40 36.46 +12 53 37.6 18.0   704 – Lincoln Laboratory ETS, New Mexico MPS 97761
2004 02 11.18753 08 29 48.50 +14 43 41.0 17.9 R 699 – Lowell Observatory-LONEOS MPS 98760
2004 02 11.20780 08 29 47.54 +14 43 49.5   699 – Lowell Observatory-LONEOS MPS 98760
2004 02 11.22811 08 29 46.61 +14 44 01.4   699 – Lowell Observatory-LONEOS MPS 98760
2004 02 11.24833 08 29 45.64 +14 44 11.8   699 – Lowell Observatory-LONEOS MPS 98760
2004 02 11.27608 08 29 44.32 +14 44 26.3 18.3 V 703 – Catalina Sky Survey MPS 98760
2004 02 11.28980 08 29 43.71 +14 44 32.8 18.2 V 703 – Catalina Sky Survey MPS 98760
2004 02 11.30348 08 29 43.02 +14 44 39.6 18.2 V 703 – Catalina Sky Survey MPS 98760
